| time (UTC) | temp F | wind direction | speed MPH | gust MPH | rain 1hr in | rain 24hr in | rain mn in | humidity % | barometer mb |
| 20260502221523 | 56 | 300 | 0.0 | 3.0 | 0.01 | 0.02 | 0.02 | 88 | 1013.1 |
| 20260502220027 | 56 | 299 | 0.0 | 0.0 | 0.01 | 0.02 | 0.02 | 87 | 1013.3 |
| 20260502214522 | 56 | 306 | 0.0 | 1.0 | 0.01 | 0.03 | 0.02 | 88 | 1013.4 |
| 20260502213021 | 56 | 342 | 0.0 | 1.0 | 0.01 | 0.03 | 0.02 | 88 | 1013.5 |
| 20260502211519 | 55 | 333 | 0.0 | 0.0 | 0.00 | 0.02 | 0.01 | 88 | 1013.5 |
| 20260502210018 | 55 | 308 | 0.0 | 0.0 | 0.00 | 0.02 | 0.01 | 87 | 1013.8 |
| 20260502204517 | 55 | 346 | 0.0 | 0.0 | 0.01 | 0.02 | 0.01 | 89 | 1013.9 |
| 20260502203017 | 55 | 324 | 0.0 | 0.0 | 0.01 | 0.02 | 0.01 | 88 | 1013.9 |
| 20260502201515 | 55 | 329 | 0.0 | 0.0 | 0.01 | 0.02 | 0.01 | 90 | 1013.9 |
| 20260502200013 | 54 | 17 | 0.0 | 0.0 | 0.01 | 0.02 | 0.01 | 91 | 1014.0 |
| 20260502194512 | 54 | 339 | 0.0 | 0.0 | 0.00 | 0.01 | 0.00 | 92 | 1014.1 |
| 20260502193010 | 53 | 6 | 0.0 | 2.0 | 0.00 | 0.01 | 0.00 | 92 | 1014.1 |
| 20260502191508 | 53 | 330 | 0.0 | 0.0 | 0.00 | 0.01 | 0.00 | 93 | 1014.4 |
| 20260502190012 | 52 | 352 | 0.0 | 9.0 | 0.00 | 0.01 | 0.00 | 93 | 1014.5 |
| 20260502184520 | 53 | 343 | 0.0 | 1.0 | 0.00 | 0.01 | 0.00 | 94 | 1014.5 |
| 20260502183014 | 53 | 326 | 0.0 | 0.0 | 0.00 | 0.01 | 0.00 | 94 | 1014.3 |
| 20260502181504 | 53 | 317 | 0.0 | 0.0 | 0.00 | 0.01 | 0.00 | 94 | 1014.2 |
| 20260502163058 | 53 | 333 | 0.0 | 0.0 | 0.00 | 0.02 | 0.00 | 95 | 1013.7 |
| 20260502161618 | 53 | 352 | 0.0 | 0.0 | 0.00 | 0.02 | 0.00 | 95 | 1013.7 |
| 20260502151549 | 52 | 11 | 0.0 | 0.0 | 0.00 | 0.02 | 0.00 | 96 | 1013.2 |
| 20260502123032 | 51 | 149 | 0.0 | 0.0 | 0.00 | 0.02 | 0.00 | 95 | 1012.1 |
| 20260502121526 | 51 | 171 | 0.0 | 3.0 | 0.00 | 0.02 | 0.00 | 95 | 1012.2 |
| 20260502114524 | 51 | 141 | 0.0 | 0.0 | 0.00 | 0.02 | 0.00 | 95 | 1011.9 |
| 20260502113024 | 51 | 150 | 0.0 | 0.0 | 0.00 | 0.02 | 0.00 | 95 | 1012.4 |
| 20260502111527 | 51 | 148 | 0.0 | 0.0 | 0.00 | 0.02 | 0.00 | 95 | 1012.5 |
| 20260502110024 | 51 | 150 | 0.0 | 0.0 | 0.00 | 0.02 | 0.00 | 95 | 1012.5 |
| 20260502104521 | 51 | 156 | 0.0 | 0.0 | 0.00 | 0.02 | 0.00 | 95 | 1012.3 |
| 20260502103020 | 51 | 162 | 0.0 | 0.0 | 0.00 | 0.02 | 0.00 | 95 | 1012.3 |
| 20260502101534 | 51 | 90 | 0.0 | 0.0 | 0.00 | 0.02 | 0.00 | 95 | 1012.4 |
| 20260502091514 | 50 | 100 | 0.0 | 0.0 | 0.00 | 0.02 | 0.00 | 95 | 1012.7 |
| 20260502071506 | 50 | 153 | 0.0 | 0.0 | 0.00 | 0.02 | 0.00 | 95 | 1012.6 |
| 20260502070002 | 50 | 180 | 0.0 | 0.0 | 0.00 | 0.02 | 0.00 | 94 | 1012.7 |
| 20260502064502 | 51 | 119 | 0.0 | 6.0 | 0.00 | 0.02 | 0.02 | 95 | 1012.5 |
| 20260502063006 | 51 | 160 | 0.0 | 3.0 | 0.00 | 0.02 | 0.02 | 95 | 1012.5 |
| 20260502061600 | 51 | 111 | 0.0 | 0.0 | 0.00 | 0.02 | 0.02 | 95 | 1012.6 |
| 20260502060100 | 51 | 108 | 0.0 | 2.0 | 0.00 | 0.02 | 0.02 | 95 | 1012.8 |
| 20260502054600 | 51 | 131 | 0.0 | 3.0 | 0.00 | 0.02 | 0.02 | 95 | 1012.8 |
| 20260502053132 | 51 | 137 | 0.0 | 2.0 | 0.00 | 0.02 | 0.02 | 94 | 1012.9 |
| 20260502051617 | 52 | 196 | 0.0 | 0.0 | 0.00 | 0.02 | 0.02 | 95 | 1012.9 |
| 20260502050058 | 51 | 207 | 0.0 | 0.0 | 0.00 | 0.02 | 0.02 | 94 | 1013.2 |
| 20260502044558 | 52 | 178 | 0.0 | 0.0 | 0.00 | 0.02 | 0.02 | 94 | 1013.1 |
| 20260502043112 | 52 | 267 | 0.0 | 0.0 | 0.00 | 0.02 | 0.02 | 94 | 1013.2 |
| 20260502041633 | 52 | 348 | 0.0 | 0.0 | 0.00 | 0.02 | 0.02 | 94 | 1013.1 |
| 20260502040056 | 52 | 350 | 0.0 | 0.0 | 0.00 | 0.02 | 0.02 | 94 | 1012.9 |
| 20260502034556 | 52 | 349 | 0.0 | 0.0 | 0.00 | 0.02 | 0.02 | 93 | 1012.8 |
| 20260502033106 | 52 | 349 | 0.0 | 0.0 | 0.00 | 0.02 | 0.02 | 93 | 1012.8 |
| 20260502031554 | 52 | 349 | 0.0 | 0.0 | 0.00 | 0.02 | 0.02 | 93 | 1012.5 |
| 20260502030056 | 52 | 7 | 0.0 | 0.0 | 0.00 | 0.02 | 0.02 | 93 | 1012.5 |
| 20260502024555 | 53 | 323 | 0.0 | 0.0 | 0.00 | 0.02 | 0.02 | 92 | 1012.4 |
| 20260502023057 | 53 | 350 | 0.0 | 0.0 | 0.00 | 0.02 | 0.02 | 92 | 1012.5 |
| 20260502021550 | 53 | 2 | 0.0 | 0.0 | 0.00 | 0.02 | 0.02 | 91 | 1012.6 |
| 20260502020054 | 54 | 6 | 1.0 | 6.0 | 0.00 | 0.02 | 0.02 | 91 | 1012.8 |
| 20260502014548 | 54 | 352 | 0.0 | 5.0 | 0.00 | 0.02 | 0.02 | 90 | 1012.9 |
| 20260502013047 | 55 | 348 | 0.0 | 6.0 | 0.00 | 0.02 | 0.02 | 90 | 1012.9 |
| 20260502011547 | 56 | 347 | 0.0 | 2.0 | 0.00 | 0.02 | 0.02 | 87 | 1013.1 |
| 20260502010045 | 57 | 341 | 1.0 | 8.0 | 0.00 | 0.02 | 0.02 | 87 | 1013.1 |
| 20260502004545 | 57 | 354 | 0.0 | 3.0 | 0.00 | 0.02 | 0.02 | 88 | 1013.1 |
| 20260502003044 | 56 | 355 | 0.0 | 11.0 | 0.00 | 0.02 | 0.02 | 89 | 1013.3 |
| 20260502001543 | 57 | 360 | 0.0 | 12.0 | 0.00 | 0.02 | 0.02 | 88 | 1013.4 |
| 20260502000045 | 58 | 344 | 0.0 | 5.0 | 0.00 | 0.02 | 0.02 | 88 | 1013.3 |
| 20260501234541 | 57 | 326 | 0.0 | 3.0 | 0.00 | 0.02 | 0.02 | 89 | 1013.4 |
| 20260501233040 | 57 | 350 | 0.0 | 5.0 | 0.00 | 0.02 | 0.02 | 89 | 1013.5 |
| 20260501231552 | 57 | 351 | 0.0 | 9.0 | 0.00 | 0.02 | 0.02 | 89 | 1013.6 |
| 20260501230038 | 58 | 2 | 0.0 | 3.0 | 0.00 | 0.02 | 0.02 | 89 | 1013.8 |
| 20260501224537 | 57 | 5 | 0.0 | 4.0 | 0.01 | 0.03 | 0.02 | 88 | 1014.1 |
| 20260501223106 | 57 | 8 | 0.0 | 0.0 | 0.01 | 0.03 | 0.02 | 88 | 1014.3 |